Terug naar catalogus

EXPLORER 30

ActiefWetenschapLEO
NORAD 1738·PAYLOAD·🇺🇸 United States

Gelanceerd Nov 19, 1965 vanaf Wallops Flight Facility

Loading…

Volgende Passages (komende 24 uur)

TLE

VersSource: Space-Track

Epoch: Sep 14, 2026, 14:09 UTC

1 01738U 65093A   26257.58976255 -.00000027  00000-0  36313-4 0  9991
2 01738  59.7071 300.7164 0137199 115.7735 245.7535 14.41869114169286

Volg EXPLORER 30 in realtime met AllMySat

Download on the App Store